Regional Weather Roundup
Issued by NWS Jackson, KY

Home | Current Version | Previous Version | Graphics & Text | Print | Product List | Glossary On
Versions: 1 2 3 4 5 6 7 8 9 10 11 12 13 14 15 16 17 18 19 20 21 22 23 24 25 26 27
000
ASUS43 KJKL 250410
RWRJKL

EAST KENTUCKY HOURLY WEATHER ROUNDUP
NATIONAL WEATHER SERVICE JACKSON KY
1200 AM EDT MON SEP 25 2017

NOTE: "FAIR" INDICATES FEW OR NO CLOUDS BELOW 12,000 FEET WITH
NO SIGNIFICANT WEATHER AND/OR OBSTRUCTIONS TO VISIBILITY.

* THESE REPORTS ARE NOT UNDER NWS QUALITY CONTROL AND MAY NOT
  REPORT WEATHER SUCH AS PRECIPITATION AND FOG.

KYZ079-080-083-085-087-088-110-112-115-119-120-250500
...EASTERN KENTUCKY...

CITY           SKY/WX    TMP DP  RH WIND       PRES   REMARKS
JACKSON        PTCLDY    74  59  59 CALM      30.08F
LONDON         CLEAR     70  64  81 CALM      30.06F
SOMERSET*      CLEAR     66  66 100 CALM      30.06F
MONTICELLO*    CLEAR     65  65 100 VRB7      30.07S
WILLIAMSBURG*  CLEAR     64  64 100 CALM      30.06F
MIDDLESBORO*   CLEAR     64  64  97 CALM      30.08F
HARLAN APT*    CLEAR     64  63  94 CALM      30.10S
PIKE CO APT*     N/A     69  63  81 CALM      30.09S
BIG SANDY APT* CLEAR     66  65  97 CALM      30.07F
MOREHEAD APT*  PTCLDY    68  63  83 S3        30.08S
$$

KYZ035-036-041-042-044-050-067-078-099-250500
...CENTRAL KENTUCKY...

CITY           SKY/WX    TMP DP  RH WIND       PRES   REMARKS
MT STERLING*   PTCLDY    64  63  94 SE3       30.08S
FLEMING/MASON* PTCLDY    67  61  80 CALM      30.08S
DANVILLE*      CLEAR     64  63  94 CALM      30.07S
LEXINGTON      CLEAR     74  60  61 SE3       30.06S
FRANKFORT      CLEAR     67  60  78 N3        30.04S
LOUISVILLE     PTCLDY    76  61  59 CALM      30.02F
LEBANON*         N/A     66  63  88 CALM      30.05S
GLASGOW*       CLEAR     68  68 100 CALM      30.03S
BOWLING GREEN  CLEAR     72  71  97 CALM      30.02S
$$

KYZ091>093-OHZ055-061-077-WVZ005-015-034-035-042-250500
...SOUTHERN OHIO/WEST VIRGINIA...

CITY           SKY/WX    TMP DP  RH WIND       PRES   REMARKS
COVINGTON      MOCLDY    71  56  58 SE3       30.05F
COLUMBUS       CLEAR     70  64  81 NE3       30.07S
DAYTON         MOCLDY    70  55  59 CALM      30.07F
WILMINGTON     CLOUDY    65  61  87 E5        30.06F
HUNTINGTON     CLEAR     65  62  90 E3        30.05S
CHARLESTON     PTCLDY    68  63  84 CALM      30.06F
PINEVILLE*     PTCLDY    61  58  89 MISG      30.17S
BECKLEY        PTCLDY    63  55  75 CALM      30.15F
BLUEFIELD      PTCLDY    67  53  61 CALM      30.18S
LOGAN CO APT*    N/A     72  61  68 CALM      30.10S
$$

VAZ002-007-008-TNZ017-027-036-066-071-250500
...SOUTHWEST VIRGINIA/EAST TENNESSEE...

CITY           SKY/WX    TMP DP  RH WIND       PRES   REMARKS
WISE*          CLEAR     68  55  64 CALM      30.16F
JONESVILLE*      N/A     64  63  94 CALM      30.10F
ABINGDON*      PTCLDY    70  55  59 E6        30.13S
BRISTOL        PTCLDY    63  60  90 N3        30.09S
MORRISTOWN*    CLEAR     70  61  73 CALM      30.04S
SEVIERVILLE*   CLEAR     66  61  82 CALM      30.03F
KNOXVILLE      PTCLDY    71  63  75 CALM      30.02F
LAFOLLETTE*    CLEAR     66  64  94 CALM      30.09S
OAK RIDGE      CLEAR     69  65  86 CALM      30.04F
CROSSVILLE     CLEAR     64  62  93 CALM      30.09S
NASHVILLE      MOCLDY    73  67  81 CALM      30.02F
$$

...KEY TO REMARKS...
VSB - VISIBILITY IN MILES
WCI - WIND CHILL INDEX
HX  - HEAT INDEX

$$




USA.gov is the U.S. government's official web portal to all federal, state and local government web resources and services.